Location: Newark
(45.9456°N, 15.4064°E)
Time: 19:59:53
(UTC+00:00)

Vanguard 2 - Visible Passes

Search period start: 24 January 2020 00:00
Search period end: 03 February 2020 00:00
Orbit: 553 x 2938 km, 32.9° (Epoch: 24 January)

Date Brightness Start Highest point End Pass type
(mag) Time Alt. Az. Time Alt. Az. Time Alt. Az.
31 Jan 12.3 04:52:13 10° SSE 04:58:44 13° SE 05:04:51 10° ESE visible
01 Feb 12.1 05:05:58 10° S 05:16:13 19° SE 05:25:27 10° ESE visible
02 Feb 12.0 05:21:16 10° SSW 05:33:42 24° SSE 05:44:41 10° ESE visible
